WICT2: Wichita River At Wichita Falls, TX

                                SHEF ID:       WICT2     Wichita Rv at Wichita Falls, TX
STATION TYPE:
Regulating: Stage = 18.50, Flow = 5482

PRECIP STAGE RIV-FLOW WTR-TEMP CONDUCT BAT-LOAD
in ft cfs F umho/cm volt
Ccp-Rev Ccp-Rev Ccp-Rev Ccp-Rev Ccp-Rev Ccp-Rev
(America/Chicago)
04/19 00:00 ---- 2.56 79 66.79 1535 12.07
04/19 01:00 ---- 2.54 77 66.04 1607 12.04
04/19 02:00 ---- 2.55 78 65.28 1648 12.00
04/19 03:00 ---- 2.53 76 64.58 1675 11.97
04/19 04:00 ---- 2.52 74 63.91 1693 11.94
04/19 05:00 ---- 2.51 73 63.25 1725 11.85
04/19 06:00 ---- 2.51 73 62.62 1755 11.87
04/19 07:00 ---- 2.50 72 62.01 1779 11.86
04/19 08:00 ---- 2.48 70 61.52 1801 11.88
04/19 09:00 ---- 2.46 68 61.36 1871 11.90
04/19 10:00 ---- 2.46 68 61.68 1955 13.16
04/19 11:00 ---- 2.45 67 62.46 1950 13.31
04/19 12:00 ---- 2.43 65 63.63 1933 13.02
04/19 13:00 ---- 2.43 65 65.14 1945 12.75
04/19 14:00 ---- 2.42 64 66.54 1963 12.52
04/19 15:00 ---- 2.42 64 67.84 1984 12.42
04/19 16:00 ---- 2.43 65 68.95 2038 12.31
04/19 17:00 ---- 2.43 65 69.76 2120 12.31
04/19 18:00 ---- 2.42 64 70.21 2183 12.29
04/19 19:00 ---- 2.42 64 69.82 2236 12.21
04/19 20:00 ---- 2.41 63 69.30 2291 12.17
04/19 21:00 ---- 2.40 62 68.74 2299 12.16
04/19 22:00 ---- 2.40 62 68.36 2303 12.14
04/19 23:00 ---- 2.39 61 67.91 2323 12.11
Data processed at Mon 20Apr2026 04:58 GMT

NOTICE: If you are parsing this page

Please convert to using our Data API. Starting early 2026 we will be migrating to: https://water.usace.army.mil with modern pages rendered in JavaScript. When this migration completes you will no longer be able to scrape this page! CWMSDataAPI (CDA)

Timeseries IDs (TSIDs)

TSIDs used from left to right in the data table
WFAL.Precip-Inc.Total.1Hour.1Hour.Ccp-Rev
WFAL.Stage.Inst.1Hour.0.Ccp-Rev
WFAL.Flow.Inst.1Hour.0.Ccp-Rev
WFAL.Temp-Water.Inst.1Hour.0.Ccp-Rev
WFAL.Cond-Water.Inst.1Hour.0.Ccp-Rev
WFAL.Volt-Battery Load.Inst.1Hour.0.Ccp-Rev

                            

All information presented herein is the property of the government of the United States of America and may be revised or deleted at any time without prior notice. Dissemination of this information without the expressed written consent of the Public Affairs Office, Tulsa District U.S. Army Corps of Engineers is strictly prohibited. These data are gathered electronically and, as presented, have NOT undergone any form of quality control. These data are NOT guaranteed to be valid or correct.